This demonstration page uses our WeatherBlox Daily Observations layout. Learn more.

Left ArrowRight Arrow

Hourly Observations for September 3, 2018

Temp ( °F °C ) Dew Point ( °F °C ) Humidity (%) Winds ( mph kmh ) Pressure ( in mb ) Visibility ( mi km ) Precip ( " mm )
12:15 am 00:15 Clear 72 22 72 22 100 100 Calm 30.24 1024 10 16 0.00 0.00
12:35 am 00:35 Clear 72 22 72 22 100 100 Calm 30.24 1024 10 16 0.00 0.00
12:55 am 00:55 Clear 72 22 72 22 100 100 Calm 30.27 1025 10 16 0.00 0.00
1:15 am 01:15 Clear 72 22 72 22 100 100 Calm 30.24 1024 10 16 0.00 0.00
1:35 am 01:35 Clear 70 21 70 21 100 100 Calm 30.24 1024 10 16 0.00 0.00
1:55 am 01:55 Clear 70 21 70 21 100 100 Calm 30.27 1025 10 16 0.00 0.00
2:15 am 02:15 Clear 70 21 70 21 100 100 Calm 30.24 1024 10 16 0.00 0.00
2:35 am 02:35 Clear 70 21 70 21 100 100 Calm 30.24 1024 10 16 0.00 0.00
2:55 am 02:55 Clear 70 21 70 21 100 100 Calm 30.24 1024 10 16 0.00 0.00
3:15 am 03:15 Clear 70 21 70 21 100 100 Calm 30.27 1025 10 16 0.00 0.00
3:35 am 03:35 Clear 70 21 70 21 100 100 Calm 30.24 1024 10 16 0.00 0.00
3:55 am 03:55 Clear 68 20 68 20 100 100 Calm 30.27 1025 10 16 0.00 0.00
4:15 am 04:15 Clear 68 20 68 20 100 100 Calm 30.27 1025 10 16 0.00 0.00
4:35 am 04:35 Clear 68 20 68 20 100 100 Calm 30.27 1025 10 16 0.00 0.00
4:55 am 04:55 Clear 68 20 68 20 100 100 Calm 30.27 1025 10 16 0.00 0.00
5:15 am 05:15 Clear 68 20 68 20 100 100 Calm 30.27 1025 10 16 0.00 0.00
5:35 am 05:35 Partly Cloudy 68 20 68 20 100 100 Calm 30.27 1025 10 16 0.00 0.00
5:55 am 05:55 Partly Cloudy 68 20 68 20 100 100 Calm 30.27 1025 10 16 0.00 0.00
6:15 am 06:15 Mostly Cloudy with Mist and Fog 68 20 68 20 100 100 Calm 30.27 1025 3 4 0.00 0.00
6:35 am 06:35 Cloudy with Mist and Fog 68 20 68 20 100 100 Calm 30.27 1025 4 6 0.00 0.00
6:55 am 06:55 Partly Cloudy 68 20 68 20 100 100 Calm 30.30 1026 7 11 0.00 0.00
7:15 am 07:15 Mostly Cloudy 68 20 68 20 100 100 Calm 30.30 1026 7 11 0.00 0.00
7:35 am 07:35 Cloudy 68 20 68 20 100 100 Calm 30.30 1026 10 16 0.00 0.00
7:55 am 07:55 Cloudy 70 21 70 21 100 100 Calm 30.30 1026 10 16 0.00 0.00
8:15 am 08:15 Mostly Cloudy 70 21 70 21 100 100 Calm 30.30 1026 10 16 0.00 0.00
8:35 am 08:35 Sunny 72 22 72 22 100 100 Calm 30.30 1026 10 16 0.00 0.00
8:55 am 08:55 Sunny 73 23 72 22 94 94 Calm 30.30 1026 10 16 0.00 0.00
9:15 am 09:15 Sunny 75 24 73 23 94 94 Calm 30.30 1026 10 16 0.00 0.00
9:35 am 09:35 Sunny 77 25 73 23 89 89 Calm 30.30 1026 10 16 0.00 0.00
9:55 am 09:55 Sunny 79 26 73 23 84 84 Calm 30.30 1026 10 16 0.00 0.00
10:15 am 10:15 Sunny 81 27 73 23 79 79 Calm 30.30 1026 10 16 0.00 0.00
10:35 am 10:35 Sunny 82 28 73 23 74 74 Calm 30.30 1026 10 16 0.00 0.00
10:55 am 10:55 Sunny 82 28 75 24 79 79 Calm 30.30 1026 10 16 0.00 0.00
11:15 am 11:15 Sunny 84 29 75 24 74 74 Calm 30.30 1026 10 16 0.00 0.00
11:35 am 11:35 Sunny 86 30 75 24 70 70 Calm 30.30 1026 10 16 0.00 0.00
11:55 am 11:55 Sunny 86 30 75 24 70 70 Calm 30.30 1026 10 16 0.00 0.00
12:15 pm 12:15 Partly Cloudy 88 31 77 25 70 70 Calm 30.30 1026 10 16 0.00 0.00
12:35 pm 12:35 Partly Cloudy 90 32 77 25 67 67 SW 3 6 30.30 1026 10 16 0.00 0.00
12:55 pm 12:55 Sunny 88 31 75 24 66 66 ESE 3 6 30.27 1025 10 16 0.00 0.00
1:15 pm 13:15 Partly Cloudy 91 33 77 25 63 63 Calm 30.27 1025 10 16 0.00 0.00
1:35 pm 13:35 Partly Cloudy 90 32 75 24 63 63 SE 5 7 30.27 1025 10 16 0.00 0.00
1:55 pm 13:55 Sunny 91 33 77 25 63 63 Calm 30.27 1025 10 16 0.00 0.00
2:15 pm 14:15 Mostly Cloudy 91 33 77 25 63 63 WNW 3 6 30.27 1025 10 16 0.00 0.00
2:35 pm 14:35 Partly Cloudy 91 33 75 24 59 59 SW 6 9 30.27 1025 10 16 0.00 0.00
2:55 pm 14:55 Partly Cloudy 93 34 73 23 53 53 W 6 9 30.21 1023 10 16 0.00 0.00
3:15 pm 15:15 Partly Cloudy 93 34 72 22 49 49 NW 3 6 30.21 1023 10 16 0.00 0.00
3:35 pm 15:35 Sunny 95 35 73 23 50 50 Calm 30.21 1023 10 16 0.00 0.00
3:55 pm 15:55 Sunny 93 34 73 23 53 53 Calm 30.21 1023 10 16 0.00 0.00
4:15 pm 16:15 Sunny 95 35 73 23 50 50 SSW 5 7 30.18 1022 10 16 0.00 0.00
4:35 pm 16:35 Sunny 95 35 73 23 50 50 Calm 30.18 1022 10 16 0.00 0.00
4:55 pm 16:55 Sunny 93 34 72 22 49 49 Calm 30.18 1022 10 16 0.00 0.00
5:15 pm 17:15 Sunny 93 34 73 23 53 53 WNW 3 6 30.18 1022 10 16 0.00 0.00
5:35 pm 17:35 Sunny 91 33 73 23 56 56 W 3 6 30.18 1022 10 16 0.00 0.00
5:55 pm 17:55 Sunny 91 33 73 23 56 56 W 3 6 30.18 1022 10 16 0.00 0.00
6:15 pm 18:15 Sunny 91 33 72 22 52 52 Calm 30.18 1022 10 16 0.00 0.00
6:35 pm 18:35 Sunny 91 33 73 23 56 56 Calm 30.21 1023 10 16 0.00 0.00
6:55 pm 18:55 Sunny 91 33 73 23 56 56 Calm 30.21 1023 10 16 0.00 0.00
7:15 pm 19:15 Sunny 90 32 75 24 63 63 Calm 30.24 1024 10 16 0.00 0.00
7:35 pm 19:35 Sunny 88 31 75 24 66 66 Calm 30.24 1024 10 16 0.00 0.00
7:55 pm 19:55 Clear 84 29 77 25 79 79 Calm 30.24 1024 10 16 0.00 0.00
8:15 pm 20:15 Clear 82 28 79 26 89 89 Calm 30.24 1024 10 16 0.00 0.00
8:35 pm 20:35 Clear 82 28 79 26 89 89 Calm 30.24 1024 10 16 0.00 0.00
8:55 pm 20:55 Clear 81 27 79 26 94 94 Calm 30.27 1025 10 16 0.00 0.00
9:15 pm 21:15 Clear 81 27 77 25 89 89 Calm 30.27 1025 10 16 0.00 0.00
9:35 pm 21:35 Clear 81 27 79 26 94 94 Calm 30.27 1025 10 16 0.00 0.00
9:55 pm 21:55 Clear 79 26 77 25 94 94 Calm 30.27 1025 10 16 0.00 0.00
10:15 pm 22:15 Clear 77 25 77 25 100 100 Calm 30.27 1025 10 16 0.00 0.00
10:35 pm 22:35 Clear 75 24 75 24 100 100 Calm 30.27 1025 10 16 0.00 0.00
10:55 pm 22:55 Clear 77 25 75 24 94 94 Calm 30.27 1025 10 16 0.00 0.00
11:15 pm 23:15 Clear 77 25 75 24 94 94 Calm 30.27 1025 10 16 0.00 0.00
11:35 pm 23:35 Clear 77 25 73 23 89 89 Calm 30.27 1025 10 16 0.00 0.00
11:55 pm 23:55 Clear 75 24 73 23 94 94 Calm 30.27 1025 10 16 0.00 0.00

Powered by AerisWeather